DW0630 Weather Reports


time (UTC)temp
C
wind
direction
speed
KPH
gust
KPH
rain 1hr
cm
rain 24hr
cm
rain mn
cm
humidity
%
barometer
mb
20260507154539 15 169 8.0 16.1 0.00 0.00 0.00 64 1014.6
20260507153027 15 164 8.0 16.1 0.00 0.00 0.00 64 1014.7
20260507151646 15 159 11.3 20.9 0.00 0.00 0.00 63 1014.7
20260507144738 16 173 8.0 17.7 0.00 0.00 0.00 64 1014.8
20260507141643 16 179 12.9 24.1 0.00 0.00 0.00 64 1015.1
20260507140029 16 214 12.9 22.5 0.00 0.00 0.00 61 1015.0
20260507134515 15 185 14.5 22.5 0.00 0.00 0.00 62 1015.0
20260507133013 16 177 9.7 25.7 0.00 0.00 0.00 60 1015.1
20260507130029 16 195 9.7 17.7 0.00 0.00 0.00 61 1015.2
20260507124511 16 174 12.9 19.3 0.00 0.00 0.00 57 1015.3
20260507123013 16 188 9.7 22.5 0.00 0.00 0.00 56 1015.4
20260507121620 16 196 12.9 22.5 0.00 0.00 0.00 59 1015.4
20260507120018 14 190 11.3 17.7 0.00 0.00 0.00 65 1015.4
20260507114514 15 209 9.7 20.9 0.00 0.00 0.00 66 1015.5
20260507113013 15 181 14.5 27.4 0.00 0.00 0.00 65 1015.5
20260507111511 14 178 11.3 22.5 0.00 0.00 0.00 67 1015.5
20260507104546 15 212 14.5 24.1 0.00 0.00 0.00 68 1015.7
20260507101545 13 191 8.0 16.1 0.00 0.00 0.00 67 1015.6
20260507100011 14 157 8.0 19.3 0.00 0.00 0.00 70 1015.6
20260507094513 13 207 8.0 27.4 0.00 0.00 0.00 70 1015.6
20260507093012 13 174 6.4 16.1 0.00 0.00 0.00 73 1015.6
20260507091514 13 178 6.4 16.1 0.00 0.00 0.00 74 1015.7
20260507090057 13 201 8.0 16.1 0.00 0.00 0.00 76 1015.7
20260507083042 12 180 4.8 12.9 0.00 0.00 0.00 81 1015.7
20260507080013 11 163 3.2 12.9 0.00 0.00 0.00 82 1015.8
20260507074517 11 136 3.2 9.7 0.00 0.00 0.00 82 1015.6
20260507073027 10 111 4.8 11.3 0.00 0.00 0.00 82 1015.6
20260507071517 10 138 3.2 11.3 0.00 0.00 0.00 83 1015.6
20260507070027 10 122 3.2 9.7 0.00 0.00 0.00 84 1015.5
20260507064523 9 113 3.2 4.8 0.00 0.00 0.00 84 1015.5
20260507063012 8 232 1.6 3.2 0.00 0.00 0.00 84 1015.6
20260507061512 8 304 1.6 6.4 0.00 0.00 0.00 85 1015.6
20260507060018 7 127 3.2 11.3 0.00 0.00 0.00 85 1015.4
20260507054511 7 111 3.2 9.7 0.00 0.00 0.00 84 1015.3
20260507053022 7 112 1.6 9.7 0.00 0.00 0.00 83 1015.2
20260507051511 7 107 3.2 11.3 0.00 0.00 0.00 83 1015.0
20260507050031 7 98 3.2 9.7 0.00 0.00 0.00 82 1015.0
20260507044513 7 118 4.8 12.9 0.00 0.00 0.00 82 1014.9
20260507043012 7 121 6.4 11.3 0.00 0.00 0.00 81 1014.9
20260507041512 7 118 4.8 9.7 0.00 0.00 0.00 81 1014.9
20260507040013 7 121 4.8 11.3 0.00 0.00 0.00 81 1015.0
20260507033014 8 96 4.8 12.9 0.00 0.00 0.00 80 1014.8
20260507031512 8 109 3.2 6.4 0.00 0.00 0.00 80 1014.8
20260507024513 8 85 4.8 8.0 0.00 0.00 0.00 79 1014.8
20260507023033 8 95 3.2 4.8 0.00 0.00 0.00 79 1014.8
20260507021539 8 94 4.8 9.7 0.00 0.00 0.00 79 1014.8
20260507020021 8 93 4.8 6.4 0.00 0.00 0.00 80 1014.8
20260507014520 8 87 4.8 9.7 0.00 0.00 0.00 80 1014.8
20260507013039 8 92 4.8 6.4 0.00 0.00 0.00 81 1014.9
20260507011545 8 95 4.8 9.7 0.00 0.00 0.00 81 1014.8
20260507010012 8 96 1.6 4.8 0.00 0.00 0.00 82 1014.8
20260507004512 8 84 4.8 6.4 0.00 0.00 0.00 80 1014.8
20260507003032 8 81 3.2 6.4 0.00 0.00 0.00 82 1014.9
20260507001512 8 81 3.2 4.8 0.00 0.00 0.00 84 1015.0
20260507000015 8 81 4.8 6.4 0.00 0.00 0.00 84 1015.0
20260506233014 8 116 1.6 3.2 0.00 0.00 0.00 85 1014.9
20260506231517 8 116 1.6 4.8 0.00 0.00 0.00 85 1014.9
20260506230015 8 101 4.8 4.8 0.00 0.00 0.00 85 1015.0
20260506224513 8 170 1.6 3.2 0.00 0.00 0.00 84 1015.0
20260506223013 8 170 1.6 4.8 0.00 0.00 0.00 83 1014.9
20260506221512 8 170 0.0 3.2 0.00 0.00 0.00 82 1014.8
20260506220016 8 100 0.0 0.0 0.00 0.00 0.00 81 1014.8
20260506214515 9 100 0.0 3.2 0.00 0.00 0.00 80 1014.8
20260506211514 10 200 4.8 8.0 0.00 0.00 0.00 79 1014.7
20260506210027 10 200 4.8 8.0 0.00 0.00 0.00 79 1014.6
20260506204532 10 207 6.4 8.0 0.00 0.00 0.00 79 1014.5
20260506203024 10 195 6.4 8.0 0.00 0.00 0.00 78 1014.5
20260506201527 10 220 6.4 9.7 0.00 0.00 0.00 76 1014.4
20260506200038 10 195 4.8 6.4 0.00 0.00 0.00 73 1014.2
20260506194517 10 67 0.0 0.0 0.00 0.00 0.00 70 1014.1
20260506193029 11 67 0.0 0.0 0.00 0.00 0.00 70 1014.0
20260506191513 12 67 1.6 3.2 0.00 0.00 0.00 67 1013.9
20260506184517 13 67 3.2 6.4 0.00 0.00 0.00 61 1013.9
20260506183029 13 67 4.8 6.4 0.00 0.00 0.00 61 1013.8
20260506181606 13 40 4.8 8.0 0.00 0.00 0.00 61 1013.8
20260506174513 13 61 4.8 6.4 0.00 0.00 0.00 57 1013.6
20260506170015 13 35 6.4 9.7 0.00 0.00 0.00 56 1013.4
20260506164518 13 67 6.4 9.7 0.00 0.00 0.00 56 1013.4
20260506163013 14 69 8.0 17.7 0.00 0.00 0.00 56 1013.5
20260506161517 14 49 9.7 14.5 0.00 0.00 0.00 54 1013.4
20260506160021 14 61 9.7 16.1 0.00 0.00 0.00 53 1013.5